Lapse_Rate
6.8 6.7 6.5 6.3 6.2 6.2 6.1 6.0 6.1 6.3 6.2 6.3 6.2 6.3 6.5 6.5 6.4 6.4 6.5 6.2 6.6 6.7 6.9 7.0 7.1 7.1 7.5 7.7 7.5 7.5 8.0 8.0 7.5 7.3 7.2 7.7 7.3 7.2 7.1 6.9 6.3 5.9 6.5 6.6 6.4
6.7 6.8 6.8 6.7 6.5 6.5 6.2 6.2 6.1 6.2 6.2 6.2 6.2 6.3 6.4 6.6 6.7 6.7 6.6 6.9 6.6 6.9 7.0 7.2 7.2 7.0 7.4 7.5 7.5 8.0 8.3 7.4 7.3 7.3 7.0 6.7 7.2 7.3 6.8 6.9 6.6 7.1 6.8 6.7 6.5
6.7 6.8 6.8 6.8 6.7 6.8 6.7 6.6 6.4 6.3 6.2 6.2 6.1 6.2 6.3 6.5 6.6 6.5 6.7 7.0 6.7 6.7 6.7 6.6 6.6 6.6 6.9 7.5 8.0 8.4 8.3 8.1 7.3 7.8 8.2 8.5 7.8 7.3 7.3 6.0 5.9 6.6 6.9 6.9 6.7
6.7 6.7 6.7 6.7 6.8 6.9 6.9 6.8 6.8 6.7 6.4 6.3 6.2 6.2 6.3 6.3 6.6 6.5 6.5 6.6 6.6 6.7 6.8 6.7 6.7 6.9 7.2 7.7 8.1 8.6 8.8 8.6 7.5 7.7 8.3 8.3 8.3 7.6 7.4 6.7 6.6 6.9 7.0 6.8 6.6
6.7 6.7 6.7 6.8 6.8 6.9 6.9 6.9 6.8 6.9 6.9 6.7 6.4 6.3 6.3 6.4 6.4 6.3 6.3 6.4 6.6 6.7 6.8 6.5 6.6 7.0 7.5 7.9 7.9 8.7 8.4 8.7 8.3 8.0 7.8 8.0 8.4 8.1 7.5 7.1 7.1 7.1 7.0 6.6 6.4
6.7 6.8 6.8 6.8 6.9 6.9 6.9 6.9 6.9 6.9 6.9 6.9 6.8 6.5 6.5 6.3 6.4 6.4 6.5 6.6 6.7 6.8 6.7 6.6 6.9 7.1 7.1 7.5 7.9 8.3 8.3 8.3 8.2 7.6 7.5 8.3 8.1 8.1 7.3 7.6 7.5 7.5 7.0 6.7 6.4
6.7 6.8 6.9 6.9 7.0 7.0 7.0 7.0 7.0 7.0 6.9 6.9 7.0 6.8 6.8 6.5 6.4 6.5 6.9 7.0 7.0 6.9 6.9 7.0 7.0 6.8 7.1 7.4 7.5 8.1 8.2 8.4 8.1 7.8 7.7 8.2 8.2 7.7 7.7 7.6 7.6 8.1 7.8 6.8 6.5
6.6 6.8 6.9 6.9 7.0 7.0 7.0 7.0 7.1 7.1 7.0 6.9 7.0 6.9 7.1 6.8 6.5 7.0 6.9 7.2 7.3 7.2 7.1 6.9 6.7 7.0 7.2 7.6 7.5 7.9 8.0 7.8 7.7 8.1 7.9 7.6 8.3 8.1 8.1 8.1 8.0 7.5 7.3 7.2 7.2
6.5 6.6 6.7 6.8 6.9 7.0 7.0 7.0 7.2 7.2 7.1 6.9 6.9 6.9 6.9 7.0 7.1 6.9 6.5 7.1 7.3 7.3 7.2 6.8 6.9 7.2 7.2 7.4 7.7 7.8 7.6 7.6 7.7 7.5 7.7 7.9 8.4 8.0 8.5 8.5 8.3 7.0 6.3 6.2 7.4
6.6 6.6 6.6 6.6 6.7 6.9 6.9 6.9 7.0 7.1 7.1 7.0 6.9 6.9 6.9 7.0 7.0 7.1 7.1 6.7 6.9 7.1 7.0 7.0 7.0 7.2 7.3 7.5 7.6 7.8 7.8 7.8 7.6 8.1 8.2 8.4 8.3 8.5 8.6 8.6 8.0 7.4 7.3 6.1 5.7
6.6 6.6 6.7 6.7 6.6 6.8 6.8 6.9 6.9 7.0 7.1 7.1 6.9 7.0 6.7 6.7 7.0 7.1 7.0 6.7 6.8 6.8 6.8 7.0 6.9 7.0 7.5 7.9 8.3 8.2 8.3 8.3 8.6 8.7 8.0 8.1 8.5 8.5 8.7 8.1 8.6 8.3 7.8 7.0 7.0
6.5 6.6 6.6 6.6 6.6 6.6 6.7 6.8 6.7 6.8 7.1 6.9 6.7 7.2 7.0 6.8 6.8 6.9 6.7 6.8 6.9 6.9 6.9 6.9 6.9 7.3 7.7 7.9 8.0 8.4 8.9 8.8 8.6 9.1 8.7 9.0 9.3 9.1 8.6 8.3 8.2 8.6 7.7 6.9 6.8
6.2 6.3 6.6 6.6 6.5 6.5 6.6 6.6 6.7 6.6 6.7 7.3 7.0 7.2 7.3 7.0 7.0 7.2 6.8 6.7 6.9 6.9 7.0 7.0 7.6 7.6 7.8 8.2 8.3 8.2 8.7 8.7 9.0 8.8 8.9 9.4 9.2 8.9 8.4 7.7 7.7 7.9 7.5 6.6 6.5
6.1 6.2 6.3 6.4 6.5 6.4 6.6 6.5 6.5 6.4 6.5 7.3 7.2 7.3 7.0 7.0 7.3 7.3 7.1 6.9 6.7 6.9 7.0 7.1 7.4 7.6 7.8 8.1 8.5 8.6 8.6 8.7 8.5 8.4 8.0 8.4 8.3 8.6 8.5 8.3 8.3 8.4 8.3 7.6 6.6
5.9 6.0 6.2 6.2 6.3 6.3 7.0 6.7 6.6 6.6 4.3 7.7 7.1 7.2 7.4 6.9 7.5 7.5 7.6 6.7 6.9 6.9 7.1 7.3 7.6 7.7 7.8 8.2 8.5 8.4 8.6 8.5 8.0 8.1 8.1 8.4 8.7 8.9 8.5 8.7 8.8 7.9 8.0 7.1 6.8
5.7 5.8 5.9 6.3 6.3 6.4 6.7 6.7 6.6 6.6 4.8 7.3 6.9 7.2 7.1 7.1 7.6 7.5 7.2 7.0 7.3 7.0 7.1 7.3 7.5 7.8 7.9 8.2 8.6 8.2 8.3 8.1 8.1 8.0 7.5 8.6 8.7 9.0 8.6 8.7 8.6 8.1 7.7 7.4 7.2
5.4 5.7 5.7 6.0 6.2 6.4 6.5 6.6 6.5 5.8 6.8 7.3 7.0 7.2 7.2 7.0 7.3 7.4 7.4 7.1 7.1 7.0 7.0 7.3 7.4 7.7 7.9 7.9 8.2 8.3 8.1 7.6 7.1 6.8 6.5 8.6 8.9 9.1 8.1 8.7 8.4 8.6 8.0 7.7 7.3
5.3 5.5 5.6 5.9 6.0 6.4 6.5 6.5 6.1 6.0 6.8 7.9 7.6 7.5 7.1 7.3 7.3 7.6 7.4 7.4 7.2 7.2 7.4 7.3 7.3 7.6 7.9 8.0 8.2 8.3 8.1 7.6 6.9 6.3 7.3 8.5 8.8 8.8 9.3 8.6 8.2 8.4 8.0 8.1 7.9
5.2 5.4 5.6 5.8 5.9 6.2 6.2 6.1 5.8 6.3 7.0 8.1 7.9 7.8 7.5 7.6 7.6 7.6 7.6 7.5 7.5 7.5 7.3 7.6 7.4 8.2 8.2 8.4 8.1 8.2 7.9 8.0 8.0 7.9 7.4 8.1 8.5 8.8 8.8 8.6 8.3 8.4 8.1 8.3 8.5
5.3 5.3 5.8 5.8 5.9 6.1 6.0 5.9 6.0 6.3 7.5 7.5 7.4 7.7 7.9 8.0 8.0 7.9 8.0 7.7 7.6 7.7 7.7 7.7 7.6 8.3 8.8 9.1 8.4 7.7 8.3 8.2 8.1 6.7 6.8 7.5 8.0 8.5 8.7 8.4 8.3 7.8 8.0 8.3 8.2
5.2 5.3 6.3 5.9 5.8 5.9 5.5 5.4 5.7 6.2 7.2 7.3 7.0 7.3 7.9 8.2 8.4 8.4 8.0 8.1 8.1 8.0 8.0 8.1 8.0 8.4 8.4 8.4 8.3 8.1 7.7 8.1 8.2 8.2 6.7 6.4 7.5 8.6 8.3 8.3 8.4 8.1 7.8 8.0 8.1
5.3 5.3 6.3 6.0 5.7 5.4 5.3 5.4 5.9 6.1 7.0 7.1 6.6 7.0 7.2 8.1 7.8 8.2 8.4 8.5 8.2 8.1 8.1 8.0 8.0 8.0 8.2 8.3 8.5 8.7 8.3 8.2 8.0 7.7 8.1 7.9 7.5 8.7 8.5 8.7 8.5 8.2 8.0 8.1 8.1
5.5 5.6 6.1 6.1 5.7 5.3 5.3 5.7 6.0 6.3 6.9 6.8 6.4 7.0 7.1 7.7 7.5 8.0 8.3 7.6 8.2 8.0 8.2 8.3 7.7 7.7 7.7 8.4 8.3 8.2 8.1 8.1 8.0 7.9 7.8 7.2 7.4 8.3 8.3 8.5 8.5 8.4 8.3 8.3 8.2
5.7 5.6 6.1 6.5 5.9 5.5 5.4 5.6 5.7 6.2 6.6 6.8 6.5 6.6 7.2 7.4 7.7 7.9 8.0 7.7 7.6 7.8 7.7 8.0 7.8 7.6 7.5 7.9 8.4 8.4 8.4 8.4 8.6 8.2 8.1 7.9 7.8 8.0 8.2 8.3 8.5 9.0 8.2 7.9 7.7
6.1 5.6 5.9 6.3 5.9 5.5 5.5 5.4 5.7 6.0 6.3 6.8 6.3 6.5 6.8 7.0 7.6 7.7 8.0 7.3 7.4 7.4 7.6 7.6 7.5 7.8 7.7 7.9 8.2 8.4 8.4 8.7 8.7 8.6 8.2 8.2 8.0 8.3 8.3 8.4 8.5 8.3 8.8 7.9 7.7
6.3 6.1 6.0 6.2 6.2 6.1 5.9 5.5 6.1 6.1 6.4 6.2 6.4 6.9 7.1 7.2 7.3 7.9 8.0 7.5 7.2 7.0 7.1 7.3 7.3 7.6 7.7 7.9 7.9 7.9 8.2 8.2 8.2 8.6 8.7 8.3 7.9 8.3 8.5 8.5 8.8 8.9 8.9 8.3 7.8
6.6 6.5 6.5 6.6 6.6 6.3 5.9 5.7 6.2 6.7 6.9 6.5 6.8 7.1 7.1 7.3 7.2 7.2 7.5 7.5 7.1 6.8 6.8 6.9 7.0 7.1 7.0 7.6 7.8 7.6 7.6 8.1 8.3 8.5 8.5 8.4 8.4 8.6 8.7 8.6 8.6 9.1 8.9 9.0 8.1
Wind_Speed
20 20 20 20 22 23 23 23 22 21 19 19 19 18 16 19 22 3 6 11 9 14 5 5 5 9 12 11 9 4 5 2 6 9 6 7 4 7 7 8 4 4 12 22 19
20 20 21 21 22 22 23 23 23 21 20 18 18 18 16 16 4 9 16 16 15 18 5 7 8 13 6 7 6 4 4 7 6 5 8 11 11 9 6 8 9 11 21 23 21
21 22 22 22 22 22 23 24 23 23 21 18 17 17 16 12 4 8 20 21 16 18 6 6 9 7 7 5 8 5 6 11 9 13 14 10 8 8 8 7 20 26 23 22 20
22 22 22 22 23 24 24 24 24 23 23 19 16 17 17 3 3 3 12 23 19 9 3 5 8 6 6 8 8 2 5 10 7 7 3 6 3 8 8 3 22 27 26 20 20
22 23 24 24 25 25 25 25 24 24 23 20 14 14 4 2 8 3 11 10 5 6 5 8 9 7 8 6 7 4 0 2 12 8 7 7 7 5 5 20 22 20 21 20 17
23 23 24 24 25 27 27 26 26 24 22 19 12 9 1 5 3 19 11 7 8 5 6 9 10 8 7 6 6 1 4 12 9 4 2 6 7 7 6 22 21 21 16 16 15
24 25 25 26 27 28 28 28 27 25 22 15 8 3 4 13 3 17 11 6 7 8 9 13 8 2 5 9 9 10 2 13 7 5 4 5 7 6 14 21 20 20 20 15 14
26 26 27 28 29 30 30 30 28 25 18 9 4 3 7 6 16 10 10 8 9 8 12 11 8 6 4 7 8 7 7 5 4 6 6 7 6 6 17 20 21 21 19 19 19
26 27 28 30 31 32 32 34 30 20 8 1 3 3 7 4 5 9 7 9 9 9 9 8 4 2 7 4 6 6 3 3 7 9 5 7 8 10 9 17 14 10 5 7 15
25 27 28 31 33 34 36 34 13 7 5 6 7 2 6 7 6 9 10 9 7 8 5 1 3 1 4 1 6 4 3 2 3 4 11 11 13 14 13 7 12 8 10 14 17
23 26 28 30 34 35 18 5 4 2 3 8 5 5 3 6 3 8 9 5 4 5 6 5 3 6 12 11 14 6 7 9 6 14 2 14 14 10 8 7 10 9 15 23 19
21 24 27 31 33 36 8 3 2 4 7 11 18 19 17 4 3 4 5 7 3 6 6 4 8 10 12 13 12 8 7 7 9 9 14 12 9 11 14 8 9 11 13 16 6
20 23 27 31 37 13 4 3 5 7 4 7 10 12 12 6 4 7 4 5 6 7 8 8 11 15 16 12 9 8 5 4 3 7 8 6 4 5 5 5 7 9 10 12 16
17 21 25 33 5 6 1 6 10 3 2 6 7 8 14 8 7 12 9 9 5 10 9 8 18 16 13 13 8 6 6 4 5 5 2 3 4 8 9 7 10 7 10 12 25
17 18 22 16 6 4 4 13 10 2 4 7 8 7 9 14 4 8 12 9 13 10 7 12 10 8 6 6 5 6 5 3 3 6 6 10 3 2 7 5 8 9 10 11 18
16 17 19 7 2 7 13 9 2 6 7 5 6 7 6 11 7 3 9 7 8 8 9 9 7 6 7 8 6 2 3 7 6 3 4 10 4 6 3 10 5 5 11 17 26
15 17 10 9 5 14 14 3 4 5 5 6 6 9 8 8 13 5 11 7 9 9 11 9 10 11 7 5 3 2 6 3 4 3 6 10 6 6 6 5 9 12 9 11 17
16 18 10 13 15 11 3 2 5 8 10 3 6 11 12 11 13 12 7 8 7 7 5 9 8 9 8 8 5 4 7 5 4 4 5 5 4 4 8 6 9 7 7 7 9
16 4 4 5 23 4 1 3 8 6 12 9 10 3 8 12 9 12 9 11 10 10 8 6 10 10 14 8 12 8 3 7 6 4 1 4 7 8 5 9 9 8 8 5 6
2 3 5 8 17 3 2 8 7 6 14 8 4 6 7 9 10 12 11 8 8 12 11 7 5 6 6 8 7 9 5 2 3 5 3 2 5 5 5 7 8 8 9 7 3
2 3 6 20 6 2 6 7 8 15 12 4 5 6 7 6 9 7 9 11 12 14 12 12 7 13 4 3 8 3 3 2 3 5 5 3 5 6 5 4 8 9 8 9 6
3 3 3 13 4 4 7 6 5 11 16 9 3 3 5 5 6 6 11 10 3 4 6 5 7 6 10 6 5 7 7 7 5 5 4 5 6 8 6 5 7 12 10 8 6
3 4 3 3 5 8 5 12 11 13 13 6 6 5 6 5 4 3 5 3 5 5 3 1 0 3 6 6 1 5 5 5 3 4 5 5 6 5 11 9 8 11 10 9 8
2 2 3 7 6 5 11 12 16 15 18 15 10 7 9 7 6 6 5 2 4 4 4 5 2 6 7 6 4 3 4 4 5 4 4 5 5 7 9 9 7 7 11 10 9
2 4 4 3 7 11 7 6 15 15 18 6 3 6 8 6 7 7 1 2 4 6 4 4 2 1 2 4 9 8 6 10 8 7 5 8 8 7 8 7 5 9 14 15 13
3 2 5 4 7 15 11 7 16 13 11 8 6 8 9 5 6 4 4 2 5 2 3 0 2 2 3 5 7 7 8 6 5 10 13 11 13 10 11 9 5 12 15 15 15
3 2 2 5 5 4 14 13 9 13 6 11 12 8 4 2 8 5 6 4 4 5 2 3 5 3 3 4 7 9 4 4 5 5 5 6 3 9 9 8 8 7 14 16 16
Wind_Direction
357 355 352 349 345 339 336 338 337 335 331 327 329 329 334 331 318 182 240 227 192 231 185 274 223 255 266 260 267 264 77 177 181 224 273 159 130 79 125 116 100 136 143 146 139
354 352 350 347 341 335 332 334 332 331 327 325 326 324 329 335 288 255 239 247 215 169 203 219 231 237 254 268 283 95 118 179 208 182 252 264 147 145 130 150 101 87 115 133 136
352 351 346 344 337 334 331 329 327 325 323 323 324 321 322 329 295 240 221 205 194 181 239 260 286 276 260 283 277 263 172 160 225 237 216 237 178 149 160 186 141 138 141 146 148
348 346 343 340 336 332 328 324 322 319 317 320 323 320 317 244 251 299 171 183 194 188 264 294 278 270 287 275 286 332 95 157 201 205 8 322 153 157 174 196 144 149 150 152 161
345 344 342 337 334 329 324 320 315 313 311 313 321 324 345 237 251 161 149 171 170 171 213 242 271 249 254 268 313 194 336 45 42 352 41 10 330 196 90 115 125 142 151 157 165
340 340 338 335 331 325 320 316 312 308 305 306 313 314 228 252 217 160 164 161 210 176 239 245 245 234 261 311 346 325 152 52 31 240 32 69 330 80 82 113 130 150 158 163 171
337 336 335 333 328 322 319 316 310 304 302 299 297 260 257 243 127 168 175 197 209 187 239 253 273 282 357 339 329 324 32 65 39 325 324 41 318 139 160 135 149 164 163 168 176
334 333 332 330 326 321 318 313 306 299 299 292 235 231 255 243 266 231 232 202 203 229 233 261 352 354 61 322 329 342 68 58 316 20 284 59 269 223 170 147 172 175 166 175 180
331 331 330 328 325 321 319 312 300 288 251 261 172 208 262 270 231 246 187 191 204 228 255 260 53 355 349 301 323 23 85 24 326 186 255 155 260 209 197 161 182 152 98 334 176
328 328 328 327 324 323 322 306 281 320 195 193 259 298 271 240 218 219 253 211 186 221 265 302 60 248 298 127 241 168 88 170 260 277 212 269 258 166 194 164 108 124 94 56 343
324 325 325 325 323 320 339 347 5 22 261 209 220 222 313 245 275 193 227 204 217 162 200 248 169 229 237 231 244 157 185 199 249 242 155 249 272 163 178 145 173 180 115 160 192
320 323 324 324 321 316 303 358 55 211 306 257 254 257 264 301 287 245 184 176 186 192 195 246 236 235 253 265 265 285 234 200 242 252 203 235 243 149 175 196 184 149 160 179 105
318 323 325 324 318 311 305 29 355 13 255 271 217 226 226 181 237 240 215 173 199 218 207 197 236 227 242 256 273 294 298 306 289 315 333 353 298 163 205 54 142 187 146 149 165
313 320 325 331 323 339 343 8 341 22 330 262 203 216 202 165 236 228 221 173 218 216 236 225 236 241 238 238 215 247 291 319 285 19 296 59 268 288 152 171 208 169 168 167 168
307 316 323 318 293 303 0 355 319 51 2 255 184 198 181 170 203 218 204 188 199 235 173 240 253 271 284 233 284 239 281 320 28 350 15 315 47 355 105 216 230 213 199 157 146
297 310 330 349 223 262 329 325 20 51 244 276 133 172 167 200 235 292 166 174 183 217 253 240 258 237 240 255 245 299 349 17 19 44 343 267 165 293 142 297 176 195 199 158 163
287 295 300 298 239 334 335 354 66 164 254 225 170 177 198 194 207 237 189 198 171 201 239 273 259 261 251 298 268 197 80 11 349 348 229 264 262 213 174 218 181 187 194 173 172
286 293 267 238 256 310 330 69 195 202 238 252 202 183 188 208 197 227 213 201 199 205 180 225 273 248 229 185 184 252 148 150 214 219 263 349 309 264 223 141 86 95 110 154 155
300 255 240 228 226 221 127 179 209 208 196 254 308 251 207 198 198 193 223 202 186 189 204 194 230 248 214 194 163 239 247 203 187 265 81 292 318 338 94 103 107 110 95 77 33
292 276 253 227 173 131 165 233 212 240 272 300 270 265 222 199 202 185 196 198 200 202 185 248 289 270 288 174 177 160 191 26 359 159 218 275 297 261 111 163 145 136 141 138 138
258 258 249 162 127 169 208 224 234 271 274 261 255 288 264 244 208 194 191 228 206 223 194 202 157 269 55 284 153 145 133 98 126 139 177 186 250 194 106 146 158 168 162 167 188
250 241 177 138 158 204 223 187 250 254 259 267 298 307 279 313 307 262 194 198 23 136 170 184 176 197 238 249 237 166 173 166 133 263 205 171 247 293 307 274 171 169 170 159 160
230 242 231 132 185 222 227 221 244 251 259 257 228 218 284 297 316 288 121 58 77 59 103 191 195 89 353 337 268 176 215 179 142 135 220 214 260 253 275 289 198 167 166 160 161
282 238 227 208 252 215 217 233 222 235 257 258 254 220 263 283 265 283 82 66 47 101 127 74 124 149 190 212 194 194 192 210 160 137 221 215 254 293 295 297 252 199 161 156 164
228 260 209 202 203 237 248 268 233 219 225 225 278 254 224 243 257 264 81 73 100 162 97 105 144 154 228 246 243 253 213 225 206 225 196 257 248 236 257 265 279 160 167 171 173
193 273 342 297 192 213 224 241 248 238 196 219 226 265 252 226 209 265 357 83 166 176 124 179 195 56 306 293 295 290 284 249 251 235 245 254 258 235 243 262 250 193 187 178 179
249 49 296 278 273 245 222 231 251 255 222 197 208 239 257 274 99 100 78 46 34 111 119 169 137 112 254 297 314 286 216 267 283 295 244 262 328 16 6 335 311 280 184 190 183